Wind_Speed
30 30 30 30 30 30 31 31 30 30 31 31 31 31 31 30 31 31 31 31 31 31 32 33 33 33 33 33 32 32 31 32 33 34 34 35 35 35 35 35 35 35 35
31 32 32 32 32 32 32 32 33 33 33 33 33 32 32 32 32 32 32 33 33 33 33 34 35 34 33 33 33 33 33 33 34 35 35 35 36 36 36 37 37 37 37
34 34 34 34 34 33 33 34 34 34 35 34 34 34 34 33 33 33 33 33 34 34 34 34 34 35 35 35 34 34 34 34 35 36 36 36 36 37 37 38 39 39 38
36 35 36 35 35 35 36 36 36 36 36 36 36 36 35 35 34 35 34 34 35 35 35 35 35 35 36 35 36 36 36 36 35 37 38 39 38 38 38 39 39 39 39
36 36 37 37 37 38 38 38 38 38 38 38 38 38 38 37 36 36 36 36 35 36 36 36 35 35 36 37 37 37 38 38 37 38 39 40 40 39 39 39 39 40 40
37 38 38 38 39 40 40 40 40 40 40 40 40 40 40 39 38 38 38 37 37 36 37 37 37 36 37 38 38 38 39 39 40 40 40 39 40 40 40 39 40 40 40
38 39 40 40 40 41 41 41 42 42 42 42 42 41 41 41 40 40 40 39 38 37 37 38 38 38 38 38 38 39 40 40 40 40 40 39 39 40 40 40 40 40 41
39 40 41 42 42 42 43 43 43 44 44 44 43 43 42 41 41 40 40 40 40 39 38 37 37 38 37 38 39 39 39 40 40 40 40 39 39 39 40 40 40 40 41
42 42 42 42 42 43 44 44 44 44 44 44 43 43 42 41 41 41 41 41 41 40 39 38 38 38 39 39 39 39 39 39 39 40 40 40 40 41 40 40 41 41 42
43 43 43 43 44 44 45 45 45 45 45 44 44 43 43 42 41 41 41 41 41 41 41 40 39 39 39 40 39 40 41 42 42 41 41 40 40 41 41 41 42 42 42
43 43 43 44 44 45 45 45 46 46 46 45 44 44 44 44 43 42 41 41 41 41 41 41 41 41 41 41 41 41 41 41 42 42 42 42 42 42 43 43 43 42 43
44 44 44 45 45 45 45 45 45 45 45 45 45 45 45 45 44 43 42 42 42 42 42 42 42 42 42 43 43 43 43 43 43 43 43 43 42 42 43 43 43 43 44
44 44 45 45 45 44 44 44 44 44 45 46 46 46 46 46 45 44 44 43 43 44 44 44 44 44 43 44 44 44 44 45 44 44 44 44 43 42 43 43 43 44 44
45 46 46 46 46 45 44 44 43 43 44 44 44 45 45 46 46 45 45 45 45 45 45 45 45 45 44 44 44 45 44 44 44 44 45 45 44 44 43 44 44 44 44
45 46 46 45 45 44 43 43 43 44 43 44 44 44 45 45 46 46 46 46 46 45 46 46 46 46 46 45 45 44 44 44 45 45 45 46 45 45 45 44 44 44 44
45 45 44 44 44 43 42 41 41 42 42 42 43 43 44 45 45 46 46 46 46 46 46 46 46 46 46 45 44 44 44 44 44 45 46 46 46 46 46 45 45 45 45
44 43 43 42 42 42 42 42 42 42 42 41 42 42 43 44 45 45 45 46 45 45 45 45 45 45 44 44 43 44 44 44 45 45 46 46 46 46 46 46 46 45 45
41 41 41 41 41 41 41 42 41 41 42 42 41 42 43 44 44 44 45 45 45 45 44 44 44 44 44 44 44 44 44 44 44 45 45 46 46 46 46 46 46 46 45
40 40 41 40 40 40 40 40 40 40 40 41 41 42 42 42 43 43 44 44 44 44 44 44 43 43 43 43 42 42 43 43 44 44 44 45 46 47 46 46 46 46 46
39 39 39 40 39 39 39 39 39 39 39 40 40 40 40 41 41 42 43 43 43 43 43 43 42 42 42 42 42 42 42 42 43 43 43 45 46 46 46 46 46 46 46
39 39 39 39 39 39 39 38 38 38 38 39 39 39 39 39 40 41 41 42 42 42 41 41 41 40 40 41 41 41 41 41 41 42 43 44 45 45 45 45 45 44 45
38 38 39 38 38 38 37 37 37 37 38 38 39 39 39 40 40 40 40 40 40 39 39 39 39 39 40 40 41 41 41 41 41 41 42 43 43 43 44 44 44 44 44
38 38 38 38 37 37 37 37 37 37 38 38 39 40 39 39 39 39 39 38 38 38 38 37 38 38 39 39 39 39 40 40 40 41 41 41 41 42 42 43 43 43 42
36 36 36 36 36 36 36 36 37 37 38 38 39 39 39 39 39 39 38 37 37 37 37 37 37 37 38 37 37 38 38 39 39 40 40 40 40 41 41 41 41 40 40
35 35 35 35 35 35 36 36 36 37 37 38 38 38 38 38 37 37 36 36 36 36 36 36 36 36 36 36 36 37 37 38 38 38 39 39 39 38 38 38 38 38 38
34 34 34 34 34 34 34 35 36 36 37 37 37 37 36 36 36 36 36 36 35 35 36 36 36 36 36 36 36 36 37 37 38 38 38 37 37 37 36 36 36 37 37
Wind_Direction
267 267 268 270 271 272 272 273 273 274 275 275 275 277 278 278 278 278 277 276 275 275 275 276 277 277 276 276 276 276 276 275 276 276 275 274 274 275 275 274 275 276 276
267 268 268 270 271 272 272 272 273 275 275 275 275 276 277 278 279 279 278 276 275 276 276 276 276 275 274 275 275 275 275 276 276 277 276 275 275 275 276 277 277 277 276
267 268 268 269 270 271 272 272 273 273 274 275 275 275 275 276 277 278 278 278 277 277 277 277 276 274 273 275 275 274 274 276 276 277 276 276 276 276 277 277 278 277 276
267 268 269 269 270 271 272 273 273 273 273 275 275 274 274 276 276 276 276 276 276 277 277 277 277 275 273 274 274 274 275 276 277 277 276 276 276 278 278 278 277 277 277
269 269 269 269 270 272 272 273 273 273 273 274 273 273 273 275 275 275 277 276 277 278 277 277 277 275 274 274 274 274 275 275 276 278 278 278 277 277 278 278 277 277 277
270 270 270 270 270 272 273 273 273 273 274 274 273 273 273 273 274 275 276 276 277 278 277 276 276 276 275 275 275 275 276 276 277 277 278 280 279 278 278 278 278 278 277
270 271 270 271 271 272 273 274 273 273 273 274 274 274 273 273 273 275 274 275 276 278 278 276 276 276 275 275 276 276 276 275 276 277 278 279 279 278 278 278 279 278 278
271 271 272 272 272 272 273 273 273 273 273 274 274 274 273 273 274 275 275 275 276 277 277 277 276 276 275 275 278 278 276 274 274 275 278 279 279 280 281 280 279 279 278
271 272 272 272 272 272 272 272 273 273 273 272 272 273 273 273 273 274 275 275 275 276 277 277 277 276 276 277 278 277 275 275 275 276 277 277 279 280 281 281 280 280 279
272 272 272 271 272 272 272 273 273 272 272 271 271 272 273 273 272 272 273 274 274 275 276 278 277 277 277 276 277 278 278 276 275 276 278 278 279 280 281 280 281 280 280
271 271 271 272 272 272 273 272 272 271 271 270 270 271 272 272 272 272 272 272 273 274 275 276 277 277 277 276 276 277 277 277 277 277 278 279 280 281 281 282 281 282 281
271 271 272 273 273 274 274 273 271 271 270 269 269 271 272 272 272 272 272 273 273 273 275 275 276 276 277 277 276 275 276 277 278 278 278 279 280 282 282 282 282 281 282
271 272 272 273 274 274 273 273 272 271 270 269 269 271 271 271 271 272 273 273 273 274 274 275 276 276 276 276 275 275 276 276 277 277 278 279 280 282 282 282 282 282 283
271 272 272 273 273 273 272 272 272 272 270 269 270 271 271 271 271 271 272 273 273 274 274 274 275 276 276 276 275 275 276 276 276 277 279 279 280 281 282 283 283 283 284
272 272 272 272 272 271 271 272 271 272 271 269 270 271 271 271 270 271 272 273 273 274 274 275 275 276 276 275 275 276 276 276 276 277 278 280 280 280 281 283 283 284 284
272 272 271 271 271 270 271 271 272 271 271 271 271 272 272 271 271 272 273 273 274 275 275 276 276 276 276 275 274 275 275 276 277 277 278 279 279 279 280 282 283 284 284
272 271 271 271 271 271 270 271 272 272 271 271 272 272 272 272 271 272 273 274 275 276 276 277 276 276 275 275 275 275 275 276 277 277 278 279 280 280 281 281 282 283 284
271 270 270 271 272 271 271 271 272 272 271 271 272 273 272 271 272 273 273 274 275 275 276 276 276 276 275 275 275 275 275 276 277 277 278 279 280 280 280 281 282 283 284
271 271 271 272 273 272 272 272 272 272 272 271 272 273 273 273 274 274 274 275 275 276 276 276 275 275 274 275 275 275 276 276 277 279 280 281 281 281 281 282 283 283 284
273 272 272 272 273 272 272 273 273 272 271 272 273 273 273 274 274 275 276 276 275 274 275 275 275 274 274 274 275 275 276 277 279 280 281 281 281 282 281 282 283 284 285
272 272 272 272 272 272 271 271 272 271 270 272 273 274 274 275 276 277 277 276 274 273 274 275 274 274 274 274 275 276 277 278 279 281 282 282 282 282 283 283 284 284 285
272 272 272 272 272 271 271 270 270 270 270 271 272 274 274 276 278 278 278 275 273 273 274 274 274 275 275 275 275 276 277 278 280 281 282 283 283 283 283 284 283 284 285
272 272 272 271 271 270 270 270 269 270 270 271 272 273 274 276 277 277 277 275 272 272 274 275 275 277 277 276 276 277 278 279 282 283 283 283 284 285 284 284 284 285 286
273 272 270 271 271 271 270 270 269 270 271 272 273 274 275 276 277 276 275 273 272 272 273 275 276 277 278 276 277 278 278 280 283 285 285 285 286 286 285 285 286 286 286
271 271 270 270 270 270 270 270 270 271 272 273 275 275 276 276 276 276 273 272 272 273 274 276 276 277 278 277 277 278 279 281 283 284 286 287 288 287 286 286 286 287 288
269 269 270 270 270 270 270 269 270 272 272 273 274 276 276 275 274 274 273 273 273 274 274 275 275 276 277 277 278 279 281 281 284 285 287 288 289 288 287 286 287 287 288
Height
5788 5788 5789 5789 5789 5789 5790 5790 5790 5790 5790 5790 5790 5790 5790 5790 5790 5790 5789 5789 5788 5788 5787 5786 5785 5784 5784 5783 5783 5782 5782 5782 5782 5782 5782 5782 5782 5781 5781 5781 5781 5781 5781
5781 5781 5782 5782 5782 5782 5782 5782 5783 5783 5783 5783 5783 5783 5783 5782 5782 5782 5781 5781 5780 5780 5779 5778 5777 5776 5776 5776 5775 5775 5775 5774 5774 5774 5773 5773 5773 5773 5773 5772 5772 5772 5772
5773 5774 5774 5774 5774 5774 5775 5775 5775 5775 5775 5775 5775 5775 5774 5774 5774 5774 5773 5773 5772 5772 5771 5770 5769 5768 5768 5767 5767 5767 5767 5767 5766 5765 5765 5764 5764 5764 5764 5763 5763 5763 5762
5765 5765 5766 5766 5766 5766 5766 5767 5767 5767 5767 5767 5767 5766 5766 5766 5766 5765 5765 5764 5764 5763 5763 5762 5761 5760 5759 5759 5759 5759 5759 5758 5757 5757 5756 5756 5755 5755 5755 5754 5753 5753 5752
5756 5757 5757 5757 5757 5758 5758 5758 5758 5758 5758 5758 5758 5758 5757 5757 5757 5756 5756 5755 5755 5755 5754 5753 5753 5752 5751 5751 5750 5750 5750 5749 5748 5748 5747 5746 5746 5745 5745 5744 5744 5743 5742
5747 5747 5748 5748 5748 5748 5748 5748 5748 5748 5748 5748 5748 5748 5748 5748 5748 5748 5747 5747 5746 5746 5745 5745 5744 5743 5743 5742 5742 5741 5741 5741 5740 5739 5738 5737 5736 5735 5735 5734 5733 5732 5732
5738 5738 5738 5738 5738 5738 5738 5738 5738 5738 5738 5738 5738 5739 5739 5738 5738 5738 5738 5738 5737 5737 5736 5736 5735 5735 5734 5734 5733 5732 5732 5731 5730 5729 5728 5727 5726 5726 5725 5724 5723 5722 5721
5728 5728 5727 5727 5727 5728 5728 5728 5728 5727 5728 5728 5728 5728 5729 5730 5729 5729 5729 5728 5728 5727 5727 5726 5726 5726 5725 5725 5724 5723 5722 5721 5721 5720 5719 5718 5717 5716 5715 5714 5713 5712 5711
5717 5717 5717 5716 5716 5716 5717 5717 5716 5716 5717 5717 5717 5717 5718 5720 5720 5720 5719 5719 5718 5718 5718 5717 5717 5716 5716 5715 5715 5714 5713 5712 5711 5710 5710 5709 5707 5706 5705 5704 5703 5701 5700
5705 5705 5705 5705 5705 5705 5705 5705 5705 5705 5705 5706 5706 5706 5707 5708 5709 5710 5710 5709 5708 5708 5708 5708 5707 5707 5706 5706 5705 5704 5703 5702 5702 5701 5700 5699 5698 5697 5695 5694 5693 5691 5690
5694 5694 5694 5694 5694 5693 5693 5693 5693 5693 5694 5695 5695 5696 5696 5697 5697 5698 5699 5699 5699 5698 5698 5698 5697 5697 5696 5696 5695 5694 5693 5692 5691 5690 5689 5688 5687 5686 5685 5683 5682 5681 5679
5683 5682 5682 5682 5682 5682 5681 5681 5681 5681 5682 5683 5684 5684 5685 5686 5686 5686 5687 5688 5688 5688 5687 5687 5687 5686 5686 5685 5684 5684 5683 5682 5681 5680 5679 5678 5677 5675 5674 5673 5671 5670 5668
5671 5671 5670 5670 5670 5670 5669 5669 5670 5670 5670 5671 5672 5673 5673 5674 5674 5675 5675 5676 5676 5677 5676 5676 5676 5675 5675 5674 5673 5672 5672 5671 5670 5669 5668 5667 5666 5664 5663 5661 5660 5659 5657
5660 5659 5659 5658 5658 5657 5657 5657 5658 5658 5658 5659 5660 5660 5661 5662 5662 5663 5663 5664 5665 5665 5665 5665 5664 5664 5663 5662 5662 5661 5660 5659 5658 5657 5656 5655 5654 5653 5652 5650 5649 5647 5646
5648 5647 5647 5646 5646 5645 5645 5646 5646 5646 5646 5647 5648 5648 5649 5649 5650 5650 5651 5651 5652 5653 5653 5653 5652 5652 5651 5650 5650 5649 5648 5647 5647 5646 5645 5644 5642 5641 5640 5639 5637 5636 5634
5636 5635 5634 5634 5634 5634 5634 5634 5634 5634 5635 5635 5636 5636 5637 5637 5638 5638 5638 5639 5639 5640 5641 5641 5640 5639 5639 5638 5638 5637 5636 5636 5635 5634 5633 5631 5630 5629 5628 5627 5625 5623 5621
5624 5623 5623 5622 5622 5622 5622 5623 5623 5623 5623 5624 5624 5624 5625 5625 5625 5626 5626 5626 5627 5627 5627 5628 5627 5626 5626 5626 5625 5625 5624 5623 5622 5621 5620 5619 5618 5617 5615 5614 5613 5611 5609
5612 5612 5612 5611 5611 5611 5611 5611 5612 5612 5612 5612 5613 5613 5613 5613 5613 5614 5614 5614 5614 5614 5615 5616 5615 5615 5614 5614 5613 5613 5612 5611 5610 5609 5608 5607 5605 5604 5603 5602 5600 5598 5597
5602 5601 5601 5601 5600 5600 5600 5600 5601 5601 5601 5601 5602 5602 5602 5602 5602 5602 5602 5602 5602 5602 5603 5603 5603 5603 5602 5602 5602 5601 5600 5599 5598 5597 5596 5595 5593 5592 5591 5589 5588 5586 5584
5591 5590 5590 5590 5590 5590 5590 5590 5590 5590 5591 5591 5591 5591 5591 5591 5591 5591 5590 5591 5591 5591 5591 5591 5591 5591 5590 5590 5590 5590 5589 5588 5587 5585 5584 5583 5581 5580 5578 5577 5576 5574 5572
5581 5580 5580 5580 5579 5579 5580 5580 5580 5580 5580 5580 5580 5580 5580 5580 5580 5579 5579 5579 5579 5579 5579 5579 5579 5579 5579 5579 5579 5578 5578 5577 5576 5574 5573 5571 5570 5569 5567 5565 5563 5562 5560
5570 5570 5570 5569 5569 5569 5569 5569 5569 5569 5570 5570 5570 5570 5570 5570 5570 5569 5568 5568 5568 5568 5568 5568 5568 5568 5568 5568 5567 5566 5566 5566 5566 5565 5563 5561 5558 5557 5555 5554 5552 5550 5548
5560 5559 5559 5559 5559 5560 5560 5560 5559 5560 5560 5560 5560 5560 5560 5560 5559 5558 5558 5557 5557 5557 5558 5558 5557 5557 5557 5557 5556 5556 5555 5554 5553 5552 5551 5550 5548 5546 5544 5542 5540 5538 5537
5550 5550 5549 5550 5550 5550 5550 5550 5550 5550 5550 5550 5550 5550 5550 5549 5549 5548 5548 5547 5547 5547 5548 5548 5548 5548 5546 5546 5545 5545 5544 5544 5543 5541 5539 5539 5537 5536 5533 5531 5529 5527 5525
5541 5540 5540 5540 5541 5541 5541 5540 5540 5540 5541 5540 5540 5540 5539 5539 5539 5538 5538 5538 5538 5538 5537 5537 5537 5537 5536 5535 5535 5535 5534 5534 5533 5532 5529 5528 5527 5526 5524 5521 5518 5516 5515
5532 5532 5532 5531 5531 5532 5531 5531 5531 5531 5531 5531 5530 5530 5529 5529 5528 5528 5528 5528 5528 5528 5528 5527 5527 5526 5526 5526 5525 5524 5524 5523 5522 5522 5520 5518 5516 5515 5515 5513 5509 5507 5505